| time (UTC) | temp F | wind direction | speed knots | gust knots | rain 1hr in | rain 24hr in | rain mn in | humidity % | barometer mb |
| 20260831234606 | 81 | 0 | 0.0 | 2.6 | 0.00 | 0.00 | 0.00 | 80 | 1012.4 |
| 20260831234046 | 81 | 0 | 0.0 | 2.6 | 0.00 | 0.00 | 0.00 | 80 | 1012.3 |
| 20260831233544 | 81 | 188 | 0.9 | 2.6 | 0.00 | 0.00 | 0.00 | 80 | 1012.2 |
| 20260831233100 | 81 | 185 | 1.7 | 3.5 | 0.00 | 0.00 | 0.00 | 80 | 1012.2 |
| 20260831232547 | 82 | 199 | 1.7 | 3.5 | 0.00 | 0.00 | 0.00 | 79 | 1012.3 |
| 20260831232047 | 82 | 182 | 0.9 | 4.3 | 0.00 | 0.00 | 0.00 | 79 | 1012.4 |
| 20260831231558 | 82 | 196 | 1.7 | 4.3 | 0.00 | 0.00 | 0.00 | 79 | 1012.3 |
| 20260831231049 | 82 | 186 | 1.7 | 3.5 | 0.00 | 0.00 | 0.00 | 79 | 1012.2 |
| 20260831230547 | 82 | 186 | 1.7 | 3.5 | 0.00 | 0.00 | 0.00 | 78 | 1012.2 |
| 20260831230106 | 82 | 188 | 0.9 | 3.5 | 0.00 | 0.00 | 0.00 | 78 | 1012.4 |
| 20260831225545 | 82 | 187 | 0.9 | 4.3 | 0.00 | 0.00 | 0.00 | 78 | 1012.4 |
| 20260831225046 | 82 | 192 | 1.7 | 4.3 | 0.00 | 0.00 | 0.00 | 78 | 1012.3 |
| 20260831224601 | 82 | 174 | 1.7 | 6.1 | 0.00 | 0.00 | 0.00 | 78 | 1012.1 |
| 20260831224043 | 82 | 192 | 1.7 | 7.0 | 0.00 | 0.00 | 0.00 | 78 | 1012.1 |
| 20260831223544 | 82 | 185 | 2.6 | 7.0 | 0.00 | 0.00 | 0.00 | 77 | 1011.9 |
| 20260831223100 | 82 | 189 | 1.7 | 5.2 | 0.00 | 0.00 | 0.00 | 77 | 1012.0 |
| 20260831222544 | 82 | 196 | 2.6 | 6.1 | 0.00 | 0.00 | 0.00 | 77 | 1012.0 |
| 20260831222043 | 82 | 223 | 0.9 | 6.1 | 0.00 | 0.00 | 0.00 | 78 | 1012.0 |
| 20260831221606 | 82 | 194 | 0.9 | 5.2 | 0.00 | 0.00 | 0.00 | 78 | 1012.1 |
| 20260831221047 | 82 | 195 | 1.7 | 6.1 | 0.00 | 0.00 | 0.00 | 78 | 1012.2 |
| 20260831220543 | 82 | 200 | 1.7 | 6.1 | 0.00 | 0.00 | 0.00 | 79 | 1012.1 |
| 20260831220104 | 82 | 190 | 1.7 | 11.3 | 0.00 | 0.00 | 0.00 | 79 | 1012.1 |
| 20260831215544 | 81 | 184 | 2.6 | 11.3 | 0.00 | 0.00 | 0.00 | 79 | 1012.2 |
| 20260831215045 | 81 | 179 | 3.5 | 8.7 | 0.00 | 0.00 | 0.00 | 79 | 1012.1 |
| 20260831214601 | 81 | 179 | 3.5 | 8.7 | 0.00 | 0.00 | 0.00 | 80 | 1012.2 |
| 20260831214044 | 81 | 190 | 4.3 | 9.6 | 0.00 | 0.00 | 0.00 | 80 | 1012.3 |
| 20260831213543 | 82 | 194 | 4.3 | 9.6 | 0.00 | 0.00 | 0.00 | 79 | 1012.3 |
| 20260831213059 | 82 | 181 | 2.6 | 7.0 | 0.00 | 0.00 | 0.00 | 79 | 1012.3 |
| 20260831212543 | 82 | 184 | 1.7 | 5.2 | 0.00 | 0.00 | 0.00 | 78 | 1012.4 |
| 20260831212043 | 82 | 182 | 1.7 | 4.3 | 0.00 | 0.00 | 0.00 | 79 | 1012.5 |
| 20260831211603 | 81 | 180 | 0.9 | 3.5 | 0.00 | 0.00 | 0.00 | 79 | 1012.6 |
| 20260831211042 | 81 | 0 | 0.9 | 2.6 | 0.00 | 0.00 | 0.00 | 80 | 1012.4 |
| 20260831210542 | 81 | 193 | 0.9 | 1.7 | 0.00 | 0.00 | 0.00 | 79 | 1012.3 |
| 20260831210104 | 81 | 192 | 0.0 | 0.9 | 0.00 | 0.00 | 0.00 | 79 | 1012.0 |
| 20260831205542 | 81 | 0 | 0.0 | 0.0 | 0.00 | 0.00 | 0.00 | 78 | 1011.8 |
| 20260831205043 | 81 | 0 | 0.0 | 0.0 | 0.00 | 0.00 | 0.00 | 77 | 1011.5 |
| 20260831204558 | 81 | 0 | 0.0 | 0.0 | 0.00 | 0.00 | 0.00 | 77 | 1011.5 |
| 20260831204043 | 81 | 0 | 0.0 | 0.9 | 0.00 | 0.00 | 0.00 | 77 | 1011.3 |
| 20260831203542 | 81 | 0 | 0.0 | 3.5 | 0.00 | 0.00 | 0.00 | 77 | 1011.3 |
| 20260831203111 | 81 | 192 | 0.0 | 3.5 | 0.00 | 0.00 | 0.00 | 77 | 1011.3 |
| 20260831202544 | 81 | 192 | 1.7 | 3.5 | 0.00 | 0.00 | 0.00 | 76 | 1011.6 |
| 20260831202047 | 82 | 180 | 0.9 | 3.5 | 0.00 | 0.00 | 0.00 | 75 | 1011.8 |
| 20260831201600 | 82 | 0 | 0.9 | 3.5 | 0.00 | 0.00 | 0.00 | 75 | 1011.9 |
| 20260831201044 | 82 | 175 | 0.0 | 3.5 | 0.00 | 0.00 | 0.00 | 75 | 1012.1 |
| 20260831200543 | 82 | 185 | 0.0 | 4.3 | 0.00 | 0.00 | 0.00 | 74 | 1012.3 |
| 20260831200059 | 82 | 0 | 0.9 | 4.3 | 0.00 | 0.00 | 0.00 | 74 | 1012.1 |
| 20260831195544 | 83 | 209 | 1.7 | 4.3 | 0.00 | 0.00 | 0.00 | 73 | 1011.9 |
| 20260831195045 | 83 | 192 | 1.7 | 4.3 | 0.00 | 0.00 | 0.00 | 72 | 1011.9 |
| 20260831194635 | 83 | 195 | 1.7 | 3.5 | 0.00 | 0.00 | 0.00 | 71 | 1012.0 |
| 20260831194048 | 84 | 182 | 1.7 | 4.3 | 0.00 | 0.00 | 0.00 | 70 | 1011.9 |
| 20260831193544 | 84 | 180 | 1.7 | 5.2 | 0.00 | 0.00 | 0.00 | 69 | 1012.0 |
| 20260831193100 | 84 | 196 | 1.7 | 5.2 | 0.00 | 0.00 | 0.00 | 69 | 1012.0 |
| 20260831192545 | 85 | 173 | 2.6 | 5.2 | 0.00 | 0.00 | 0.00 | 68 | 1012.0 |
| 20260831192045 | 85 | 175 | 2.6 | 5.2 | 0.00 | 0.00 | 0.00 | 68 | 1012.1 |
| 20260831191559 | 85 | 194 | 1.7 | 5.2 | 0.00 | 0.00 | 0.00 | 67 | 1012.1 |
| 20260831191047 | 86 | 201 | 2.6 | 6.1 | 0.00 | 0.00 | 0.00 | 65 | 1012.1 |
| 20260831190545 | 86 | 184 | 2.6 | 6.1 | 0.00 | 0.00 | 0.00 | 66 | 1012.1 |
| 20260831190114 | 86 | 171 | 3.5 | 7.0 | 0.00 | 0.00 | 0.00 | 68 | 1012.0 |
| 20260831185547 | 86 | 173 | 3.5 | 7.0 | 0.00 | 0.00 | 0.00 | 67 | 1012.1 |
| 20260831185045 | 85 | 194 | 2.6 | 7.0 | 0.00 | 0.00 | 0.00 | 67 | 1012.0 |
| 20260831184609 | 85 | 185 | 2.6 | 7.8 | 0.00 | 0.00 | 0.00 | 69 | 1012.1 |
| 20260831184044 | 84 | 167 | 3.5 | 7.8 | 0.00 | 0.00 | 0.00 | 71 | 1012.2 |
| 20260831183546 | 84 | 185 | 3.5 | 6.1 | 0.00 | 0.00 | 0.00 | 72 | 1012.2 |
| 20260831183107 | 83 | 196 | 3.5 | 6.1 | 0.00 | 0.00 | 0.00 | 73 | 1012.2 |
| 20260831182546 | 83 | 192 | 3.5 | 6.1 | 0.00 | 0.00 | 0.00 | 73 | 1012.2 |
| 20260831182049 | 82 | 185 | 1.7 | 6.1 | 0.00 | 0.00 | 0.00 | 72 | 1012.3 |
| 20260831181603 | 82 | 180 | 3.5 | 6.1 | 0.00 | 0.00 | 0.00 | 73 | 1012.3 |
| 20260831181045 | 82 | 192 | 3.5 | 7.0 | 0.00 | 0.00 | 0.00 | 74 | 1012.4 |
| 20260831180545 | 82 | 168 | 3.5 | 7.0 | 0.00 | 0.00 | 0.00 | 74 | 1012.3 |
| 20260831180100 | 82 | 178 | 2.6 | 7.0 | 0.00 | 0.00 | 0.00 | 75 | 1012.3 |
| 20260831175547 | 81 | 183 | 2.6 | 7.8 | 0.00 | 0.00 | 0.00 | 75 | 1012.4 |
| 20260831175046 | 81 | 188 | 4.3 | 7.8 | 0.00 | 0.00 | 0.00 | 75 | 1012.4 |
| 20260831174602 | 81 | 187 | 3.5 | 9.6 | 0.00 | 0.00 | 0.00 | 75 | 1012.4 |
| 20260831174046 | 81 | 201 | 3.5 | 9.6 | 0.00 | 0.00 | 0.00 | 74 | 1012.5 |
| 20260831173546 | 81 | 190 | 5.2 | 8.7 | 0.00 | 0.00 | 0.00 | 73 | 1012.5 |
| 20260831173101 | 81 | 192 | 3.5 | 10.4 | 0.00 | 0.00 | 0.00 | 73 | 1012.7 |
| 20260831172545 | 81 | 187 | 3.5 | 10.4 | 0.00 | 0.00 | 0.00 | 75 | 1012.7 |
| 20260831172045 | 80 | 192 | 6.1 | 10.4 | 0.00 | 0.00 | 0.00 | 74 | 1012.7 |
| 20260831171606 | 80 | 234 | 6.1 | 10.4 | 0.00 | 0.00 | 0.00 | 73 | 1012.6 |
| 20260831171045 | 80 | 183 | 3.5 | 11.3 | 0.00 | 0.00 | 0.00 | 74 | 1012.7 |
| 20260831170545 | 80 | 184 | 7.0 | 12.2 | 0.00 | 0.00 | 0.00 | 73 | 1012.9 |
| 20260831170107 | 80 | 181 | 6.1 | 12.2 | 0.00 | 0.00 | 0.00 | 74 | 1012.8 |
| 20260831165544 | 80 | 181 | 6.1 | 11.3 | 0.00 | 0.00 | 0.00 | 74 | 1012.9 |
| 20260831165045 | 80 | 182 | 5.2 | 12.2 | 0.00 | 0.00 | 0.00 | 74 | 1012.8 |
| 20260831164609 | 79 | 192 | 4.3 | 13.0 | 0.00 | 0.00 | 0.00 | 75 | 1012.8 |
| 20260831164045 | 79 | 190 | 7.0 | 13.0 | 0.00 | 0.00 | 0.00 | 77 | 1012.8 |
| 20260831163545 | 79 | 180 | 7.0 | 11.3 | 0.00 | 0.00 | 0.00 | 77 | 1012.9 |
| 20260831163102 | 79 | 182 | 5.2 | 11.3 | 0.00 | 0.00 | 0.00 | 78 | 1012.9 |
| 20260831162546 | 79 | 187 | 6.1 | 11.3 | 0.00 | 0.00 | 0.00 | 77 | 1013.0 |
| 20260831162046 | 78 | 184 | 5.2 | 10.4 | 0.00 | 0.00 | 0.00 | 77 | 1013.1 |
| 20260831161601 | 78 | 178 | 5.2 | 12.2 | 0.00 | 0.00 | 0.00 | 78 | 1013.1 |
| 20260831161045 | 78 | 189 | 6.1 | 12.2 | 0.00 | 0.00 | 0.00 | 79 | 1013.1 |
| 20260831160547 | 78 | 186 | 7.0 | 11.3 | 0.00 | 0.00 | 0.00 | 79 | 1013.0 |
| 20260831160110 | 77 | 194 | 6.1 | 11.3 | 0.00 | 0.00 | 0.00 | 78 | 1013.1 |
| 20260831155546 | 77 | 188 | 5.2 | 13.0 | 0.00 | 0.00 | 0.00 | 79 | 1012.9 |
| 20260831155049 | 77 | 182 | 6.1 | 13.9 | 0.00 | 0.00 | 0.00 | 80 | 1013.1 |
| 20260831154706 | 77 | 186 | 7.8 | 13.9 | 0.00 | 0.00 | 0.00 | 80 | 1013.0 |
| 20260831154045 | 76 | 201 | 8.7 | 12.2 | 0.00 | 0.00 | 0.00 | 80 | 1013.0 |
| 20260831153549 | 76 | 184 | 7.8 | 11.3 | 0.00 | 0.00 | 0.00 | 81 | 1013.1 |
| 20260831153100 | 76 | 189 | 5.2 | 10.4 | 0.00 | 0.00 | 0.00 | 81 | 1013.2 |
| 20260831152545 | 76 | 184 | 5.2 | 13.0 | 0.00 | 0.00 | 0.00 | 81 | 1013.3 |
| 20260831152046 | 75 | 186 | 5.2 | 13.0 | 0.00 | 0.00 | 0.00 | 81 | 1013.2 |
| 20260831151603 | 75 | 179 | 5.2 | 10.4 | 0.00 | 0.00 | 0.00 | 81 | 1013.1 |
| 20260831151047 | 75 | 182 | 6.1 | 10.4 | 0.00 | 0.00 | 0.00 | 81 | 1013.1 |
| 20260831150549 | 75 | 182 | 6.1 | 11.3 | 0.00 | 0.00 | 0.00 | 81 | 1013.2 |
| 20260831145546 | 75 | 196 | 7.0 | 10.4 | 0.00 | 0.00 | 0.00 | 81 | 1013.3 |
| 20260831145045 | 75 | 190 | 6.1 | 10.4 | 0.00 | 0.00 | 0.00 | 81 | 1013.2 |
| 20260831144558 | 75 | 178 | 6.1 | 10.4 | 0.00 | 0.00 | 0.00 | 82 | 1013.1 |
| 20260831144045 | 75 | 191 | 4.3 | 10.4 | 0.00 | 0.00 | 0.00 | 82 | 1013.2 |
| 20260831143545 | 74 | 186 | 4.3 | 10.4 | 0.00 | 0.00 | 0.00 | 82 | 1013.3 |
| 20260831143114 | 74 | 195 | 5.2 | 8.7 | 0.00 | 0.00 | 0.00 | 82 | 1013.3 |
| 20260831142546 | 74 | 188 | 4.3 | 9.6 | 0.00 | 0.00 | 0.00 | 82 | 1013.3 |
| 20260831142045 | 74 | 192 | 6.1 | 9.6 | 0.00 | 0.00 | 0.00 | 82 | 1013.3 |
| 20260831141615 | 74 | 202 | 6.1 | 9.6 | 0.00 | 0.00 | 0.00 | 82 | 1013.2 |
| 20260831141044 | 74 | 189 | 5.2 | 9.6 | 0.00 | 0.00 | 0.00 | 82 | 1013.1 |
| 20260831140545 | 74 | 209 | 5.2 | 9.6 | 0.00 | 0.00 | 0.00 | 82 | 1013.3 |
| 20260831140058 | 74 | 181 | 5.2 | 8.7 | 0.00 | 0.00 | 0.00 | 82 | 1013.1 |
| 20260831135545 | 74 | 190 | 4.3 | 9.6 | 0.00 | 0.01 | 0.00 | 83 | 1013.2 |
| 20260831135045 | 73 | 199 | 4.3 | 10.4 | 0.00 | 0.01 | 0.00 | 83 | 1013.1 |
| 20260831134609 | 73 | 188 | 4.3 | 10.4 | 0.00 | 0.01 | 0.00 | 83 | 1013.2 |
| 20260831134044 | 73 | 179 | 6.1 | 10.4 | 0.00 | 0.01 | 0.00 | 83 | 1013.1 |
| 20260831133545 | 73 | 193 | 3.5 | 8.7 | 0.00 | 0.01 | 0.00 | 84 | 1013.1 |
| 20260831133104 | 73 | 186 | 5.2 | 8.7 | 0.00 | 0.01 | 0.00 | 84 | 1013.1 |
| 20260831132547 | 73 | 185 | 5.2 | 9.6 | 0.00 | 0.01 | 0.00 | 84 | 1013.0 |
| 20260831132045 | 72 | 182 | 6.1 | 9.6 | 0.00 | 0.01 | 0.00 | 85 | 1012.9 |
| 20260831131612 | 72 | 195 | 6.1 | 9.6 | 0.00 | 0.01 | 0.00 | 86 | 1013.0 |
| 20260831131044 | 72 | 198 | 6.1 | 8.7 | 0.00 | 0.01 | 0.00 | 86 | 1012.8 |
| 20260831130544 | 72 | 202 | 6.1 | 11.3 | 0.00 | 0.01 | 0.00 | 87 | 1012.9 |
| 20260831130101 | 72 | 194 | 6.1 | 11.3 | 0.00 | 0.01 | 0.00 | 88 | 1012.8 |
| 20260831125545 | 71 | 194 | 6.1 | 8.7 | 0.00 | 0.01 | 0.00 | 87 | 1013.0 |
| 20260831125045 | 71 | 198 | 5.2 | 9.6 | 0.00 | 0.01 | 0.00 | 88 | 1013.0 |
| 20260831124611 | 71 | 182 | 6.1 | 9.6 | 0.00 | 0.01 | 0.00 | 88 | 1013.1 |
| 20260831124044 | 71 | 190 | 6.1 | 9.6 | 0.00 | 0.01 | 0.00 | 89 | 1013.1 |
| 20260831123544 | 71 | 207 | 6.1 | 8.7 | 0.00 | 0.01 | 0.00 | 90 | 1013.2 |
| 20260831123101 | 71 | 178 | 5.2 | 8.7 | 0.00 | 0.01 | 0.00 | 90 | 1013.2 |
| 20260831122546 | 71 | 196 | 5.2 | 8.7 | 0.00 | 0.01 | 0.00 | 91 | 1013.1 |
| 20260831122045 | 70 | 192 | 5.2 | 7.8 | 0.00 | 0.01 | 0.00 | 91 | 1013.1 |
| 20260831121605 | 70 | 180 | 4.3 | 7.8 | 0.00 | 0.01 | 0.00 | 92 | 1013.1 |
| 20260831121045 | 70 | 195 | 4.3 | 7.8 | 0.00 | 0.01 | 0.00 | 92 | 1013.1 |
| 20260831120545 | 70 | 188 | 4.3 | 7.0 | 0.00 | 0.01 | 0.00 | 92 | 1013.1 |
| 20260831120106 | 70 | 198 | 3.5 | 7.8 | 0.00 | 0.01 | 0.00 | 92 | 1013.1 |
| 20260831115545 | 70 | 189 | 4.3 | 7.8 | 0.00 | 0.01 | 0.00 | 93 | 1013.1 |
| 20260831115044 | 70 | 190 | 4.3 | 7.8 | 0.00 | 0.01 | 0.00 | 93 | 1013.1 |
| 20260831114600 | 70 | 205 | 4.3 | 7.8 | 0.00 | 0.01 | 0.00 | 93 | 1013.2 |
| 20260831114047 | 70 | 196 | 4.3 | 7.0 | 0.00 | 0.01 | 0.00 | 93 | 1013.3 |
| 20260831113545 | 70 | 187 | 4.3 | 7.0 | 0.00 | 0.01 | 0.00 | 94 | 1013.3 |
| 20260831113118 | 70 | 185 | 4.3 | 7.0 | 0.00 | 0.01 | 0.00 | 94 | 1013.2 |
| 20260831112545 | 70 | 180 | 4.3 | 7.0 | 0.00 | 0.01 | 0.00 | 94 | 1013.1 |
| 20260831112044 | 70 | 0 | 0.0 | 0.0 | 0.00 | 0.01 | 0.00 | 94 | 1013.1 |
| 20260831111602 | 70 | 0 | 0.0 | 0.0 | 0.00 | 0.01 | 0.00 | 94 | 1013.3 |
| 20260831111044 | 70 | 0 | 0.0 | 0.0 | 0.00 | 0.01 | 0.00 | 94 | 1013.3 |
| 20260831110544 | 70 | 0 | 0.0 | 0.0 | 0.00 | 0.01 | 0.00 | 94 | 1013.3 |
| 20260831110101 | 70 | 0 | 0.0 | 0.0 | 0.00 | 0.01 | 0.00 | 94 | 1013.4 |
| 20260831105545 | 70 | 0 | 0.0 | 0.0 | 0.00 | 0.01 | 0.00 | 94 | 1013.5 |
| 20260831105045 | 70 | 0 | 0.0 | 0.0 | 0.00 | 0.01 | 0.00 | 94 | 1013.7 |
| 20260831104604 | 70 | 0 | 0.0 | 0.0 | 0.00 | 0.01 | 0.00 | 94 | 1013.7 |
| 20260831104044 | 70 | 0 | 0.0 | 0.0 | 0.00 | 0.01 | 0.00 | 94 | 1013.7 |
| 20260831103544 | 70 | 0 | 0.0 | 0.0 | 0.00 | 0.01 | 0.00 | 94 | 1013.9 |
| 20260831103101 | 70 | 0 | 0.0 | 0.0 | 0.00 | 0.01 | 0.00 | 94 | 1013.6 |
| 20260831102547 | 70 | 0 | 0.0 | 0.0 | 0.00 | 0.01 | 0.00 | 94 | 1013.9 |
| 20260831102044 | 70 | 0 | 0.0 | 0.0 | 0.00 | 0.01 | 0.00 | 94 | 1013.8 |
| 20260831101615 | 70 | 0 | 0.0 | 0.0 | 0.00 | 0.01 | 0.00 | 94 | 1013.7 |
| 20260831101044 | 70 | 0 | 0.0 | 0.0 | 0.00 | 0.01 | 0.00 | 93 | 1013.6 |
| 20260831100543 | 70 | 0 | 0.0 | 0.0 | 0.00 | 0.01 | 0.00 | 93 | 1013.4 |
| 20260831100111 | 70 | 0 | 0.0 | 0.0 | 0.00 | 0.01 | 0.00 | 93 | 1013.6 |
| 20260831095545 | 69 | 0 | 0.0 | 0.0 | 0.00 | 0.01 | 0.00 | 93 | 1013.6 |
| 20260831095044 | 69 | 0 | 0.0 | 0.0 | 0.00 | 0.01 | 0.00 | 93 | 1013.7 |
| 20260831094601 | 69 | 0 | 0.0 | 0.0 | 0.00 | 0.01 | 0.00 | 93 | 1013.4 |
| 20260831094045 | 69 | 0 | 0.0 | 0.0 | 0.00 | 0.01 | 0.00 | 93 | 1013.3 |
| 20260831093547 | 69 | 0 | 0.0 | 0.0 | 0.00 | 0.01 | 0.00 | 92 | 1013.1 |
| 20260831093102 | 69 | 0 | 0.0 | 0.0 | 0.00 | 0.01 | 0.00 | 92 | 1013.1 |
| 20260831092544 | 69 | 0 | 0.0 | 0.0 | 0.00 | 0.01 | 0.00 | 92 | 1013.1 |
| 20260831092046 | 69 | 0 | 0.0 | 0.0 | 0.00 | 0.01 | 0.00 | 92 | 1013.0 |
| 20260831091602 | 69 | 0 | 0.0 | 0.0 | 0.00 | 0.01 | 0.00 | 92 | 1013.1 |
| 20260831091045 | 69 | 0 | 0.0 | 0.0 | 0.00 | 0.01 | 0.00 | 92 | 1013.2 |
| 20260831090544 | 69 | 0 | 0.0 | 0.0 | 0.00 | 0.01 | 0.00 | 92 | 1013.3 |
| 20260831090109 | 70 | 0 | 0.0 | 0.0 | 0.00 | 0.01 | 0.00 | 92 | 1013.3 |
| 20260831085545 | 70 | 0 | 0.0 | 0.0 | 0.00 | 0.01 | 0.00 | 92 | 1013.3 |
| 20260831085044 | 70 | 0 | 0.0 | 0.0 | 0.00 | 0.01 | 0.00 | 92 | 1013.3 |
| 20260831084600 | 70 | 0 | 0.0 | 0.0 | 0.00 | 0.01 | 0.00 | 92 | 1013.4 |
| 20260831084044 | 70 | 0 | 0.0 | 0.0 | 0.00 | 0.01 | 0.00 | 92 | 1013.4 |
| 20260831083543 | 70 | 0 | 0.0 | 0.0 | 0.00 | 0.01 | 0.00 | 92 | 1013.3 |
| 20260831083110 | 70 | 0 | 0.0 | 0.0 | 0.00 | 0.01 | 0.00 | 92 | 1013.4 |
| 20260831082544 | 70 | 0 | 0.0 | 0.0 | 0.00 | 0.01 | 0.00 | 92 | 1013.3 |
| 20260831082044 | 70 | 0 | 0.0 | 0.0 | 0.00 | 0.01 | 0.00 | 92 | 1013.3 |
| 20260831081601 | 70 | 0 | 0.0 | 0.0 | 0.00 | 0.01 | 0.00 | 92 | 1013.3 |
| 20260831081042 | 70 | 0 | 0.0 | 0.0 | 0.00 | 0.01 | 0.00 | 92 | 1013.4 |
| 20260831080544 | 70 | 0 | 0.0 | 0.0 | 0.00 | 0.01 | 0.00 | 92 | 1013.4 |
| 20260831080110 | 70 | 0 | 0.0 | 0.0 | 0.00 | 0.01 | 0.00 | 92 | 1013.4 |
| 20260831075541 | 70 | 0 | 0.0 | 0.0 | 0.00 | 0.01 | 0.00 | 92 | 1013.5 |
| 20260831075047 | 70 | 0 | 0.0 | 0.0 | 0.00 | 0.01 | 0.00 | 92 | 1013.5 |
| 20260831074602 | 70 | 0 | 0.0 | 0.0 | 0.00 | 0.01 | 0.00 | 92 | 1013.6 |
| 20260831074044 | 70 | 0 | 0.0 | 0.0 | 0.00 | 0.01 | 0.00 | 92 | 1013.7 |
| 20260831073543 | 70 | 0 | 0.0 | 0.0 | 0.00 | 0.01 | 0.00 | 91 | 1013.7 |
| 20260831073102 | 70 | 0 | 0.0 | 0.0 | 0.00 | 0.01 | 0.00 | 91 | 1013.7 |
| 20260831072544 | 70 | 0 | 0.0 | 0.0 | 0.00 | 0.01 | 0.00 | 91 | 1013.8 |
| 20260831072043 | 70 | 0 | 0.0 | 0.0 | 0.00 | 0.01 | 0.00 | 91 | 1014.0 |
| 20260831071603 | 70 | 0 | 0.0 | 0.0 | 0.00 | 0.01 | 0.00 | 91 | 1014.1 |
| 20260831071043 | 70 | 0 | 0.0 | 0.0 | 0.00 | 0.01 | 0.00 | 91 | 1014.1 |
| 20260831070544 | 70 | 0 | 0.0 | 0.0 | 0.00 | 0.01 | 0.00 | 91 | 1014.2 |
| 20260831070101 | 71 | 0 | 0.0 | 0.0 | 0.00 | 0.01 | 0.00 | 91 | 1014.2 |
| 20260831065546 | 71 | 0 | 0.0 | 0.0 | 0.00 | 0.01 | 0.00 | 91 | 1014.4 |
| 20260831065045 | 71 | 0 | 0.0 | 0.0 | 0.00 | 0.01 | 0.00 | 91 | 1014.3 |
| 20260831064604 | 71 | 0 | 0.0 | 0.0 | 0.00 | 0.01 | 0.00 | 91 | 1014.3 |
| 20260831064047 | 71 | 0 | 0.0 | 0.0 | 0.00 | 0.01 | 0.00 | 91 | 1014.4 |
| 20260831063547 | 71 | 0 | 0.0 | 0.0 | 0.00 | 0.01 | 0.00 | 91 | 1014.5 |
| 20260831063103 | 71 | 0 | 0.0 | 0.0 | 0.00 | 0.01 | 0.00 | 91 | 1014.4 |
| 20260831062546 | 71 | 0 | 0.0 | 0.0 | 0.00 | 0.01 | 0.00 | 91 | 1014.4 |
| 20260831062046 | 71 | 0 | 0.0 | 0.0 | 0.00 | 0.01 | 0.00 | 91 | 1014.5 |
| 20260831061607 | 71 | 0 | 0.0 | 0.0 | 0.00 | 0.01 | 0.00 | 91 | 1014.5 |
| 20260831061045 | 71 | 0 | 0.0 | 0.0 | 0.00 | 0.01 | 0.00 | 91 | 1014.5 |
| 20260831060545 | 71 | 0 | 0.0 | 0.0 | 0.00 | 0.01 | 0.00 | 90 | 1014.5 |
| 20260831060109 | 71 | 0 | 0.0 | 0.0 | 0.00 | 0.01 | 0.00 | 90 | 1014.4 |
| 20260831055546 | 71 | 0 | 0.0 | 0.0 | 0.00 | 0.01 | 0.00 | 90 | 1014.5 |
| 20260831055046 | 71 | 0 | 0.0 | 0.0 | 0.00 | 0.01 | 0.00 | 90 | 1014.4 |
| 20260831054604 | 71 | 0 | 0.0 | 0.0 | 0.00 | 0.01 | 0.00 | 90 | 1014.3 |
| 20260831054046 | 72 | 0 | 0.0 | 0.0 | 0.00 | 0.01 | 0.00 | 90 | 1014.4 |
| 20260831053547 | 72 | 0 | 0.0 | 0.0 | 0.00 | 0.01 | 0.00 | 90 | 1014.3 |
| 20260831053101 | 72 | 0 | 0.0 | 0.0 | 0.00 | 0.01 | 0.00 | 90 | 1014.4 |
| 20260831052547 | 72 | 0 | 0.0 | 0.0 | 0.00 | 0.01 | 0.00 | 89 | 1014.4 |
| 20260831052046 | 72 | 0 | 0.0 | 0.0 | 0.00 | 0.01 | 0.00 | 89 | 1014.3 |
| 20260831051613 | 72 | 0 | 0.0 | 0.0 | 0.00 | 0.01 | 0.00 | 89 | 1014.4 |
| 20260831051045 | 72 | 0 | 0.0 | 0.0 | 0.00 | 0.01 | 0.00 | 89 | 1014.2 |
| 20260831050544 | 72 | 0 | 0.0 | 0.0 | 0.00 | 0.01 | 0.00 | 89 | 1014.3 |
| 20260831050106 | 72 | 0 | 0.0 | 0.0 | 0.00 | 0.01 | 0.00 | 89 | 1014.2 |
| 20260831045545 | 72 | 0 | 0.0 | 0.0 | 0.00 | 0.01 | 0.01 | 89 | 1014.3 |
| 20260831045047 | 72 | 0 | 0.0 | 0.0 | 0.00 | 0.01 | 0.01 | 90 | 1014.1 |
| 20260831044601 | 72 | 0 | 0.0 | 0.0 | 0.00 | 0.01 | 0.01 | 90 | 1014.1 |
| 20260831044046 | 72 | 0 | 0.0 | 0.0 | 0.00 | 0.01 | 0.01 | 90 | 1014.1 |
| 20260831043545 | 72 | 0 | 0.0 | 4.3 | 0.00 | 0.01 | 0.01 | 90 | 1014.2 |
| 20260831043059 | 72 | 0 | 0.0 | 6.1 | 0.00 | 0.01 | 0.01 | 90 | 1014.1 |
| 20260831042547 | 72 | 185 | 2.6 | 7.0 | 0.00 | 0.01 | 0.01 | 90 | 1014.0 |
| 20260831042046 | 72 | 204 | 4.3 | 7.0 | 0.00 | 0.01 | 0.01 | 90 | 1013.8 |
| 20260831041621 | 72 | 184 | 2.6 | 6.1 | 0.00 | 0.01 | 0.01 | 90 | 1013.8 |
| 20260831041048 | 72 | 198 | 2.6 | 7.8 | 0.00 | 0.01 | 0.01 | 90 | 1013.9 |
| 20260831040547 | 72 | 190 | 3.5 | 7.8 | 0.00 | 0.01 | 0.01 | 90 | 1013.9 |
| 20260831040104 | 72 | 187 | 4.3 | 7.8 | 0.00 | 0.01 | 0.01 | 90 | 1013.8 |
| 20260831035545 | 72 | 188 | 3.5 | 7.8 | 0.00 | 0.01 | 0.01 | 90 | 1014.0 |
| 20260831035044 | 72 | 191 | 2.6 | 9.6 | 0.00 | 0.01 | 0.01 | 90 | 1014.0 |
| 20260831034601 | 72 | 191 | 6.1 | 9.6 | 0.00 | 0.01 | 0.01 | 90 | 1013.7 |
| 20260831034045 | 72 | 193 | 6.1 | 8.7 | 0.00 | 0.01 | 0.01 | 90 | 1013.8 |
| 20260831033544 | 72 | 190 | 6.1 | 8.7 | 0.00 | 0.01 | 0.01 | 90 | 1013.7 |
| 20260831033102 | 72 | 185 | 5.2 | 8.7 | 0.00 | 0.01 | 0.01 | 91 | 1013.4 |
| 20260831032546 | 72 | 178 | 5.2 | 7.0 | 0.00 | 0.01 | 0.01 | 91 | 1013.9 |
| 20260831032048 | 72 | 186 | 4.3 | 7.0 | 0.00 | 0.01 | 0.01 | 91 | 1014.3 |
| 20260831031601 | 72 | 181 | 3.5 | 6.1 | 0.00 | 0.01 | 0.01 | 90 | 1014.3 |
| 20260831031043 | 72 | 186 | 0.0 | 0.9 | 0.00 | 0.01 | 0.01 | 89 | 1014.5 |
| 20260831030545 | 72 | 0 | 0.0 | 0.9 | 0.00 | 0.01 | 0.01 | 89 | 1014.8 |
| 20260831030114 | 72 | 0 | 0.0 | 2.6 | 0.00 | 0.01 | 0.01 | 90 | 1014.7 |
| 20260831025544 | 72 | 0 | 0.0 | 4.3 | 0.00 | 0.01 | 0.01 | 90 | 1015.0 |
| 20260831025044 | 72 | 186 | 1.7 | 7.0 | 0.00 | 0.01 | 0.01 | 90 | 1014.7 |
| 20260831024638 | 72 | 196 | 2.6 | 7.0 | 0.00 | 0.01 | 0.01 | 90 | 1014.7 |
| 20260831024046 | 72 | 185 | 3.5 | 7.0 | 0.00 | 0.01 | 0.01 | 90 | 1014.4 |
| 20260831023546 | 72 | 190 | 1.7 | 7.8 | 0.00 | 0.01 | 0.01 | 89 | 1014.3 |
| 20260831023100 | 72 | 183 | 1.7 | 9.6 | 0.00 | 0.01 | 0.01 | 90 | 1014.5 |
| 20260831022543 | 72 | 179 | 3.5 | 9.6 | 0.00 | 0.01 | 0.01 | 90 | 1014.5 |
| 20260831022043 | 72 | 200 | 6.1 | 9.6 | 0.00 | 0.01 | 0.01 | 90 | 1014.0 |
| 20260831021604 | 72 | 184 | 5.2 | 9.6 | 0.00 | 0.01 | 0.01 | 90 | 1014.2 |
| 20260831021044 | 72 | 187 | 5.2 | 9.6 | 0.00 | 0.01 | 0.01 | 91 | 1014.2 |
| 20260831020546 | 72 | 194 | 3.5 | 6.1 | 0.00 | 0.01 | 0.01 | 91 | 1014.3 |
| 20260831020059 | 72 | 194 | 2.6 | 9.6 | 0.00 | 0.01 | 0.01 | 91 | 1014.4 |
| 20260831015545 | 72 | 188 | 4.3 | 9.6 | 0.00 | 0.01 | 0.01 | 91 | 1014.5 |
| 20260831015045 | 72 | 185 | 6.1 | 9.6 | 0.00 | 0.01 | 0.01 | 92 | 1014.0 |
| 20260831014612 | 71 | 186 | 3.5 | 11.3 | 0.00 | 0.01 | 0.01 | 91 | 1014.3 |
| 20260831014046 | 71 | 202 | 4.3 | 11.3 | 0.00 | 0.01 | 0.01 | 92 | 1014.5 |
| 20260831013546 | 71 | 182 | 3.5 | 8.7 | 0.00 | 0.01 | 0.01 | 91 | 1014.3 |
| 20260831013113 | 71 | 180 | 3.5 | 5.2 | 0.00 | 0.01 | 0.01 | 92 | 1014.7 |
| 20260831012546 | 71 | 189 | 2.6 | 5.2 | 0.00 | 0.01 | 0.01 | 91 | 1014.7 |
| 20260831012047 | 71 | 186 | 1.7 | 5.2 | 0.00 | 0.01 | 0.01 | 91 | 1014.8 |
| 20260831011605 | 71 | 195 | 0.9 | 5.2 | 0.00 | 0.01 | 0.01 | 91 | 1014.8 |
| 20260831011046 | 71 | 176 | 2.6 | 6.1 | 0.00 | 0.01 | 0.01 | 91 | 1014.6 |
| 20260831010546 | 71 | 188 | 3.5 | 6.1 | 0.00 | 0.01 | 0.01 | 92 | 1014.3 |
| 20260831010105 | 71 | 193 | 3.5 | 7.0 | 0.00 | 0.01 | 0.01 | 92 | 1014.0 |
| 20260831005546 | 71 | 192 | 2.6 | 7.0 | 0.00 | 0.01 | 0.01 | 92 | 1014.0 |
| 20260831005046 | 71 | 202 | 3.5 | 7.0 | 0.00 | 0.01 | 0.01 | 92 | 1013.9 |
| 20260831004602 | 71 | 196 | 3.5 | 5.2 | 0.00 | 0.01 | 0.01 | 91 | 1014.1 |
| 20260831004046 | 71 | 188 | 1.7 | 4.3 | 0.00 | 0.01 | 0.01 | 91 | 1014.2 |
| 20260831003547 | 71 | 180 | 1.7 | 4.3 | 0.00 | 0.01 | 0.01 | 91 | 1014.2 |
| 20260831003059 | 71 | 200 | 1.7 | 4.3 | 0.00 | 0.01 | 0.01 | 91 | 1014.0 |
| 20260831002546 | 71 | 190 | 1.7 | 4.3 | 0.00 | 0.01 | 0.01 | 91 | 1013.9 |
| 20260831002046 | 72 | 200 | 2.6 | 5.2 | 0.00 | 0.01 | 0.01 | 91 | 1014.0 |
| 20260831001607 | 72 | 192 | 1.7 | 7.0 | 0.00 | 0.01 | 0.01 | 91 | 1013.9 |
| 20260831001046 | 72 | 184 | 2.6 | 7.0 | 0.00 | 0.01 | 0.01 | 91 | 1013.9 |
| 20260831000547 | 72 | 181 | 2.6 | 7.0 | 0.00 | 0.01 | 0.01 | 91 | 1013.7 |
| 20260831000105 | 72 | 190 | 2.6 | 8.7 | 0.00 | 0.01 | 0.01 | 91 | 1013.8 |
| 20260830235546 | 72 | 184 | 3.5 | 8.7 | 0.00 | 0.01 | 0.01 | 91 | 1013.6 |
| 20260830235046 | 72 | 191 | 4.3 | 8.7 | 0.00 | 0.01 | 0.01 | 91 | 1013.6 |